EN

Hourly Weather Abadiania

Today, 1 December, Tuesday

Time Temperature Precipitation Wind Pressure Humidity
00:00 +18°C° 0 mm 0 mps 675 mmHg 72%
01:00 +18°C° 0 mm 0 mps 675 mmHg 73%
02:00 +18°C° 0 mm 0 mps 675 mmHg 74%
03:00 +20°C° 0 mm 1 mps 675 mmHg 70%
04:00 +20°C° 0 mm 1 mps 675 mmHg 72%
05:00 +19°C° 0 mm 1 mps 675 mmHg 74%
06:00 +19°C° 0 mm 1 mps 675 mmHg 76%
07:00 +22°C° 0 mm 1 mps 676 mmHg 70%
08:00 +25°C° 0 mm 1 mps 677 mmHg 63%
09:00 +27°C° 0 mm 2 mps 678 mmHg 56%
10:00 +29°C° 0 mm 2 mps 678 mmHg 52%
11:00 +30°C° 0 mm 1 mps 678 mmHg 48%
12:00 +31°C° 0 mm 1 mps 678 mmHg 45%
13:00 +31°C° 0 mm 1 mps 677 mmHg 48%
14:00 +30°C° 0 mm 1 mps 676 mmHg 52%
15:00 +27°C° 0 mm 0 mps 676 mmHg 55%
16:00 +26°C° 0 mm 0 mps 675 mmHg 60%
17:00 +25°C° 0 mm 0 mps 674 mmHg 65%
18:00 +26°C° 0 mm 1 mps 674 mmHg 69%
19:00 +23°C° 0 mm 0 mps 674 mmHg 71%
20:00 +22°C° 0 mm 0 mps 674 mmHg 73%
21:00 +20°C° 0 mm 0 mps 675 mmHg 75%
22:00 +20°C° 0 mm 0 mps 675 mmHg 76%
23:00 +20°C° 0 mm 0 mps 675 mmHg 77%

Tomorrow, 2 December, Wednesday

Time Temperature Precipitation Wind Pressure Humidity
00:00 +20°C° 0 mm 0 mps 675 mmHg 78%
01:00 +19°C° 0 mm 0 mps 674 mmHg 79%
02:00 +19°C° 0 mm 0 mps 674 mmHg 81%
03:00 +21°C° 0 mm 1 mps 673 mmHg 82%
04:00 +21°C° 0 mm 1 mps 673 mmHg 83%
05:00 +20°C° 0 mm 1 mps 674 mmHg 83%
06:00 +20°C° 0 mm 1 mps 674 mmHg 84%
07:00 +23°C° 0 mm 1 mps 675 mmHg 75%
08:00 +25°C° 0 mm 2 mps 676 mmHg 66%
09:00 +28°C° 0 mm 3 mps 677 mmHg 57%
10:00 +29°C° 0 mm 2 mps 677 mmHg 53%
11:00 +30°C° 0 mm 2 mps 677 mmHg 49%
12:00 +31°C° 0 mm 2 mps 677 mmHg 45%
13:00 +30°C° 0 mm 2 mps 676 mmHg 48%
14:00 +30°C° 0 mm 2 mps 676 mmHg 51%
15:00 +29°C° 0 mm 2 mps 675 mmHg 53%
16:00 +28°C° 0 mm 1 mps 675 mmHg 58%
17:00 +27°C° 0 mm 1 mps 674 mmHg 63%
18:00 +26°C° 0 mm 1 mps 674 mmHg 68%
19:00 +25°C° 0 mm 1 mps 674 mmHg 70%
20:00 +24°C° 0 mm 1 mps 674 mmHg 72%
21:00 +23°C° 0 mm 1 mps 674 mmHg 74%
22:00 +22°C° 0 mm 1 mps 674 mmHg 74%
23:00 +22°C° 0 mm 1 mps 674 mmHg 74%

Day after tomorrow, 3 December, Thursday

Time Temperature Precipitation Wind Pressure Humidity
00:00 +21°C° 0 mm 1 mps 674 mmHg 74%
01:00 +21°C° 0 mm 1 mps 674 mmHg 74%
02:00 +21°C° 0 mm 1 mps 673 mmHg 75%
03:00 +21°C° 0 mm 1 mps 673 mmHg 75%
04:00 +21°C° 0 mm 1 mps 673 mmHg 76%
05:00 +21°C° 0 mm 1 mps 674 mmHg 78%
06:00 +20°C° 0 mm 1 mps 674 mmHg 79%
07:00 +23°C° 0 mm 1 mps 675 mmHg 70%
08:00 +26°C° 0 mm 2 mps 676 mmHg 61%
09:00 +28°C° 0 mm 2 mps 677 mmHg 52%
10:00 +29°C° 0 mm 3 mps 677 mmHg 49%
11:00 +30°C° 0 mm 3 mps 677 mmHg 45%
12:00 +31°C° 0 mm 3 mps 677 mmHg 41%
13:00 +31°C° 0 mm 3 mps 676 mmHg 43%
14:00 +31°C° 0 mm 3 mps 675 mmHg 44%
15:00 +31°C° 0 mm 3 mps 675 mmHg 45%
16:00 +29°C° 0 mm 2 mps 674 mmHg 51%
17:00 +28°C° 0 mm 2 mps 674 mmHg 56%
18:00 +27°C° 0 mm 2 mps 674 mmHg 61%
19:00 +26°C° 0 mm 1 mps 674 mmHg 62%
20:00 +25°C° 0 mm 1 mps 675 mmHg 63%
21:00 +23°C° 0 mm 1 mps 675 mmHg 63%
22:00 +23°C° 0 mm 1 mps 675 mmHg 62%
23:00 +21°C° 0 mm 0 mps 675 mmHg 61%

4 December, Friday

Time Temperature Precipitation Wind Pressure Humidity
00:00 +20°C° 0 mm 0 mps 675 mmHg 60%
01:00 +20°C° 0 mm 0 mps 675 mmHg 60%
02:00 +20°C° 0 mm 0 mps 674 mmHg 60%
03:00 +22°C° 0 mm 1 mps 674 mmHg 61%
04:00 +22°C° 0 mm 1 mps 675 mmHg 63%
05:00 +19°C° 0 mm 0 mps 675 mmHg 65%
06:00 +19°C° 0 mm 0 mps 675 mmHg 68%
07:00 +24°C° 0 mm 1 mps 676 mmHg 62%
08:00 +26°C° 0 mm 1 mps 677 mmHg 57%
09:00 +29°C° 0 mm 1 mps 678 mmHg 52%
10:00 +30°C° 0 mm 1 mps 678 mmHg 50%
11:00 +30°C° 0 mm 1 mps 678 mmHg 47%
12:00 +31°C° 0 mm 1 mps 677 mmHg 45%
13:00 +31°C° 0 mm 1 mps 677 mmHg 47%
14:00 +31°C° 0 mm 1 mps 676 mmHg 48%
15:00 +31°C° 0 mm 1 mps 676 mmHg 50%
16:00 +29°C° 0 mm 1 mps 675 mmHg 55%
17:00 +28°C° 0 mm 1 mps 675 mmHg 60%
18:00 +25°C° 0 mm 0 mps 675 mmHg 65%
19:00 +24°C° 0.4 mm 0 mps 675 mmHg 69%
20:00 +23°C° 0.4 mm 0 mps 675 mmHg 73%
21:00 +21°C° 0.4 mm 0 mps 675 mmHg 76%
22:00 +23°C° 1.1 mm 1 mps 675 mmHg 81%
23:00 +22°C° 1.1 mm 1 mps 675 mmHg 85%

5 December, Saturday

Time Temperature Precipitation Wind Pressure Humidity
00:00 +21°C° 1.1 mm 1 mps 675 mmHg 89%
01:00 +21°C° 1.3 mm 1 mps 675 mmHg 91%
02:00 +21°C° 1.3 mm 1 mps 674 mmHg 92%
03:00 +21°C° 1.3 mm 1 mps 674 mmHg 94%
04:00 +21°C° 0.3 mm 1 mps 674 mmHg 92%
05:00 +22°C° 0.3 mm 1 mps 675 mmHg 90%
06:00 +20°C° 0.3 mm 0 mps 675 mmHg 89%
07:00 +21°C° 0.4 mm 0 mps 676 mmHg 87%
08:00 +22°C° 0.4 mm 0 mps 677 mmHg 85%
09:00 +23°C° 0.4 mm 0 mps 677 mmHg 82%
10:00 +26°C° 0.8 mm 1 mps 678 mmHg 76%
11:00 +27°C° 0.8 mm 1 mps 678 mmHg 70%
12:00 +29°C° 0.8 mm 1 mps 678 mmHg 63%
13:00 +29°C° 1.3 mm 1 mps 677 mmHg 65%
14:00 +28°C° 1.3 mm 2 mps 676 mmHg 67%
15:00 +28°C° 1.3 mm 2 mps 675 mmHg 69%
16:00 +27°C° 0.8 mm 2 mps 675 mmHg 75%
17:00 +25°C° 0.8 mm 2 mps 674 mmHg 81%
18:00 +24°C° 0.8 mm 2 mps 674 mmHg 87%
19:00 +23°C° 0.1 mm 1 mps 674 mmHg 87%
20:00 +23°C° 0.1 mm 1 mps 674 mmHg 87%
21:00 +22°C° 0.1 mm 1 mps 675 mmHg 87%
22:00 +20°C° 0 mm 0 mps 675 mmHg 89%
23:00 +20°C° 0 mm 0 mps 675 mmHg 90%

6 December, Sunday

Time Temperature Precipitation Wind Pressure Humidity
00:00 +19°C° 0 mm 0 mps 674 mmHg 91%
01:00 +19°C° 0 mm 0 mps 674 mmHg 91%
02:00 +19°C° 0 mm 0 mps 674 mmHg 91%
03:00 +19°C° 0 mm 0 mps 673 mmHg 91%
04:00 +19°C° 0 mm 0 mps 674 mmHg 91%
05:00 +19°C° 0 mm 0 mps 674 mmHg 90%
06:00 +20°C° 0 mm 0 mps 674 mmHg 90%
07:00 +23°C° 0.2 mm 1 mps 675 mmHg 85%
08:00 +25°C° 0.2 mm 1 mps 676 mmHg 80%
09:00 +26°C° 0.2 mm 1 mps 676 mmHg 75%
10:00 +27°C° 0.9 mm 1 mps 676 mmHg 70%
11:00 +29°C° 0.9 mm 1 mps 676 mmHg 65%
12:00 +30°C° 0.9 mm 1 mps 676 mmHg 59%
13:00 +30°C° 0.7 mm 1 mps 675 mmHg 61%
14:00 +29°C° 0.7 mm 2 mps 675 mmHg 62%
15:00 +29°C° 0.7 mm 2 mps 674 mmHg 63%
16:00 +28°C° 0.8 mm 2 mps 674 mmHg 70%
17:00 +27°C° 0.8 mm 1 mps 673 mmHg 76%
18:00 +25°C° 0.8 mm 1 mps 673 mmHg 82%
19:00 +24°C° 0.1 mm 1 mps 673 mmHg 85%
20:00 +23°C° 0.1 mm 1 mps 673 mmHg 88%
21:00 +22°C° 0.1 mm 1 mps 674 mmHg 90%
22:00 +22°C° 1 mm 1 mps 674 mmHg 92%
23:00 +22°C° 1 mm 1 mps 674 mmHg 93%
Show more